EW0608 Weather Reports


time (UTC)temp
C
wind
direction
speed
KPH
gust
KPH
rain 1hr
cm
rain 24hr
cm
rain mn
cm
humidity
%
barometer
mb
20260508093022 2 191 0.0 0.0 0.00 0.05 0.00 90 1014.1
20260508091524 2 191 0.0 3.2 0.00 0.05 0.00 90 1014.1
20260508090014 2 191 0.0 0.0 0.00 0.05 0.00 90 1013.9
20260508084508 3 191 0.0 0.0 0.00 0.05 0.00 89 1013.7
20260508083006 3 191 0.0 0.0 0.00 0.05 0.00 89 1013.5
20260508081504 3 191 0.0 1.6 0.00 0.05 0.00 89 1013.4
20260508080101 3 191 0.0 0.0 0.00 0.05 0.00 87 1013.2
20260508074557 4 191 0.0 0.0 0.00 0.05 0.00 86 1013.2
20260508073056 4 191 0.0 1.6 0.00 0.05 0.00 85 1013.4
20260508071554 5 191 1.6 3.2 0.00 0.05 0.00 83 1013.2
20260508070057 5 191 1.6 3.2 0.00 0.05 0.00 81 1013.2
20260508064546 5 190 0.0 1.6 0.00 0.05 0.00 80 1013.2
20260508063042 6 190 0.0 0.0 0.00 0.05 0.00 76 1013.1
20260508061540 6 190 0.0 0.0 0.00 0.05 0.00 74 1013.0
20260508060838 7 190 0.0 0.0 0.00 0.05 0.00 72 1013.1
20260508060353 7 190 0.0 0.0 0.00 0.05 0.00 71 1013.1
20260508060043 7 190 0.0 0.0 0.00 0.05 0.00 72 1013.0
20260508055842 7 190 0.0 0.0 0.00 0.05 0.00 70 1013.1
20260508055355 8 190 0.0 0.0 0.00 0.05 0.00 69 1013.2
20260508054847 8 190 0.0 0.0 0.00 0.00 0.00 67 1012.9
20260508054543 8 190 0.0 0.0 0.00 0.05 0.00 65 1013.0
20260508054338 8 190 0.0 0.0 0.00 0.05 0.00 64 1013.1
20260508053849 8 190 0.0 0.0 0.00 0.05 0.00 63 1013.0
20260508053343 8 190 0.0 0.0 0.00 0.05 0.00 63 1013.1
20260508053059 8 190 0.0 1.6 0.00 0.05 0.00 64 1012.9
20260508052854 9 190 0.0 1.6 0.00 0.05 0.00 63 1013.1
20260508051855 9 190 1.6 3.2 0.00 0.05 0.00 63 1013.0
20260508051548 9 190 0.0 3.2 0.00 0.05 0.00 62 1012.8
20260508051347 9 134 0.0 3.2 0.00 0.05 0.00 63 1013.0
20260508050840 9 134 0.0 4.8 0.00 0.05 0.00 62 1013.0
20260508050352 9 134 1.6 4.8 0.00 0.05 0.00 60 1013.0
20260508050004 9 134 0.0 4.8 0.00 0.05 0.00 63 1012.8
20260508045840 9 134 0.0 4.8 0.00 0.05 0.00 63 1013.0
20260508045412 9 134 1.6 4.8 0.00 0.05 0.00 62 1012.9
20260508044844 9 119 1.6 4.8 0.00 0.05 0.00 63 1012.8
20260508044553 9 198 0.0 4.8 0.00 0.05 0.00 64 1012.7
20260508044337 10 202 0.0 4.8 0.00 0.05 0.00 64 1012.8
20260508043850 10 32 0.0 3.2 0.00 0.05 0.00 64 1012.8
20260508043341 9 32 0.0 3.2 0.00 0.05 0.00 62 1012.7
20260508043018 9 32 0.0 3.2 0.00 0.05 0.00 66 1012.4
20260508042915 9 32 1.6 3.2 0.00 0.05 0.00 66 1012.6
20260508042406 9 32 0.0 3.2 0.00 0.05 0.00 66 1012.5
20260508041858 8 32 0.0 4.8 0.00 0.05 0.00 69 1012.4
20260508041509 8 27 0.0 4.8 0.00 0.05 0.00 71 1012.2
20260508041409 8 279 0.0 4.8 0.00 0.05 0.00 71 1012.3
20260508040839 8 84 0.0 4.8 0.00 0.05 0.00 74 1012.3
20260508040413 8 59 0.0 3.2 0.00 0.05 0.00 76 1012.2
20260508040042 7 59 0.0 3.2 0.00 0.05 0.00 77 1011.9
20260508035840 7 57 0.0 3.2 0.00 0.05 0.05 78 1012.1
20260508035351 7 196 1.6 6.4 0.00 0.05 0.05 80 1012.0
20260508034844 7 29 0.0 6.4 0.00 0.05 0.05 80 1011.9
20260508034544 7 302 1.6 6.4 0.00 0.05 0.05 80 1011.7
20260508034336 7 42 0.0 3.2 0.00 0.05 0.05 80 1011.9
20260508033850 7 42 0.0 3.2 0.00 0.05 0.05 79 1011.8
20260508033342 7 42 0.0 3.2 0.00 0.05 0.05 79 1011.7
20260508033040 7 42 0.0 3.2 0.00 0.05 0.05 79 1011.6
20260508032840 7 42 0.0 3.2 0.00 0.05 0.05 79 1011.8
20260508032353 7 42 0.0 3.2 0.00 0.05 0.05 79 1011.8
20260508031845 8 42 0.0 3.2 0.00 0.05 0.05 78 1011.7
20260508031536 7 42 0.0 3.2 0.00 0.05 0.05 78 1011.5
20260508031336 8 42 0.0 0.0 0.00 0.05 0.05 77 1011.6
20260508030849 8 42 0.0 1.6 0.00 0.05 0.05 76 1011.6
20260508030343 8 42 0.0 1.6 0.00 0.05 0.05 77 1011.6
20260508030100 8 42 0.0 1.6 0.00 0.05 0.05 78 1011.3
20260508025852 8 42 0.0 1.6 0.00 0.05 0.05 78 1011.5
20260508025345 8 42 0.0 1.6 0.00 0.05 0.05 78 1011.4
20260508024858 8 42 0.0 1.6 0.00 0.05 0.05 78 1011.4
20260508024551 8 42 0.0 1.6 0.00 0.05 0.05 77 1011.2
20260508024350 8 42 0.0 0.0 0.00 0.05 0.05 77 1011.3
20260508023844 8 42 0.0 1.6 0.00 0.05 0.05 75 1011.4
20260508023337 8 42 0.0 3.2 0.00 0.05 0.05 73 1011.4
20260508023048 8 42 0.0 3.2 0.00 0.05 0.05 73 1011.1
20260508022345 8 42 0.0 1.6 0.00 0.05 0.05 70 1011.2
20260508021838 9 42 0.0 1.6 0.00 0.05 0.05 69 1011.2
20260508021511 8 42 0.0 1.6 0.00 0.05 0.05 69 1010.9
20260508021411 9 42 0.0 1.6 0.00 0.05 0.05 68 1011.1
20260508020903 9 42 0.0 1.6 0.00 0.05 0.05 67 1011.1
20260508020356 10 42 0.0 0.0 0.00 0.05 0.05 66 1011.0
20260508020005 9 42 0.0 0.0 0.00 0.05 0.05 66 1010.8
20260508015905 10 42 0.0 0.0 0.00 0.05 0.05 66 1011.0
20260508015337 10 42 0.0 1.6 0.00 0.05 0.05 67 1010.9
20260508014851 10 42 0.0 1.6 0.00 0.05 0.05 66 1010.8
20260508014548 10 42 0.0 1.6 0.00 0.05 0.05 65 1010.5
20260508014345 10 42 0.0 0.0 0.00 0.05 0.05 65 1010.8
20260508013838 10 42 0.0 0.0 0.00 0.05 0.05 64 1010.8
20260508013411 11 42 0.0 0.0 0.00 0.05 0.05 64 1010.6
20260508013044 11 42 0.0 0.0 0.00 0.05 0.05 64 1010.4
20260508012842 11 42 0.0 0.0 0.00 0.05 0.05 64 1010.5
20260508012336 11 42 0.0 0.0 0.00 0.05 0.05 62 1010.5
20260508011848 11 42 0.0 0.0 0.00 0.05 0.05 61 1010.4
20260508011503 11 42 0.0 0.0 0.00 0.05 0.05 60 1010.2
20260508011401 12 42 0.0 0.0 0.00 0.05 0.05 60 1010.3
20260508010852 12 42 0.0 0.0 0.00 0.05 0.05 58 1010.2
20260508010346 12 42 0.0 0.0 0.00 0.05 0.05 57 1010.1
20260508010040 12 42 0.0 0.0 0.00 0.05 0.05 57 1009.9
20260508005840 12 42 0.0 0.0 0.00 0.05 0.05 56 1010.0
20260508005354 13 42 0.0 0.0 0.00 0.05 0.05 55 1010.0
20260508004847 13 42 0.0 1.6 0.00 0.05 0.05 53 1009.9
20260508004635 13 42 0.0 3.2 0.00 0.05 0.05 53 1009.6
20260508004435 13 42 0.0 3.2 0.00 0.05 0.05 52 1009.8
20260508003905 13 42 0.0 1.6 0.00 0.05 0.05 51 1009.8
20260508003341 14 41 0.0 0.0 0.00 0.05 0.05 51 1009.7
20260508003054 13 41 0.0 0.0 0.00 0.05 0.05 51 1009.5
20260508002853 14 41 0.0 0.0 0.00 0.05 0.05 50 1009.7
20260508002345 14 41 0.0 1.6 0.00 0.05 0.05 49 1009.6
20260508001858 15 41 0.0 1.6 0.00 0.05 0.05 50 1009.6
20260508001551 14 41 0.0 0.0 0.00 0.05 0.05 49 1009.3
20260508001350 15 41 0.0 1.6 0.00 0.05 0.05 48 1009.5
20260508000902 15 41 0.0 1.6 0.00 0.05 0.05 45 1009.4
20260508000414 15 41 0.0 1.6 0.00 0.05 0.05 44 1009.3
20260508000043 15 41 0.0 1.6 0.00 0.05 0.05 43 1009.0
20260507235842 16 41 0.0 1.6 0.00 0.05 0.05 43 1009.2
20260507235413 16 41 0.0 4.8 0.00 0.05 0.05 39 1009.1
20260507234603 16 46 1.6 6.4 0.00 0.05 0.05 39 1008.8
20260507233056 16 80 0.0 4.8 0.00 0.05 0.05 38 1008.6
20260507231558 17 85 0.0 3.2 0.00 0.05 0.05 38 1008.6
20260507230100 17 333 1.6 8.0 0.00 0.05 0.05 36 1008.4
20260507224556 17 269 3.2 9.7 0.00 0.05 0.05 36 1008.3
20260507223059 17 335 0.0 6.4 0.00 0.05 0.05 36 1008.0
20260507221553 18 342 1.6 8.0 0.00 0.05 0.05 36 1007.8
20260507220054 18 26 3.2 8.0 0.00 0.05 0.05 36 1007.7
20260507214652 18 20 1.6 12.9 0.00 0.05 0.05 34 1007.5
20260507213052 18 59 1.6 8.0 0.00 0.05 0.05 34 1007.3
20260507211552 18 340 0.0 9.7 0.03 0.05 0.05 33 1007.2
20260507210052 20 15 1.6 12.9 0.05 0.05 0.05 32 1007.1
20260507204550 19 194 4.8 17.7 0.05 0.05 0.05 32 1007.1
20260507203841 21 360 3.2 9.7 0.05 0.05 0.05 31 1007.4
20260507203354 20 88 1.6 9.7 0.05 0.05 0.05 34 1007.4
20260507203057 19 138 3.2 9.7 0.05 0.05 0.05 32 1007.2
20260507202847 19 30 6.4 11.3 0.05 0.05 0.05 31 1007.5
20260507202340 20 331 4.8 11.3 0.05 0.05 0.05 31 1007.5
20260507201851 20 336 4.8 12.9 0.03 0.03 0.03 32 1007.6
20260507201544 19 355 1.6 20.9 0.03 0.03 0.03 31 1007.3
20260507201343 20 241 4.8 20.9 0.03 0.03 0.03 31 1007.7
20260507200836 20 184 1.6 11.3 0.00 0.00 0.00 31 1007.4
20260507200350 20 351 1.6 11.3 0.00 0.00 0.00 30 1007.6
20260507200047 20 15 4.8 11.3 0.00 0.00 0.00 30 1007.4
20260507195839 20 333 6.4 11.3 0.00 0.00 0.00 32 1007.5
20260507195352 20 265 3.2 11.3 0.00 0.00 0.00 31 1007.7
20260507194845 20 101 4.8 11.3 0.00 0.00 0.00 33 1007.6
20260507194538 19 228 1.6 9.7 0.00 0.00 0.00 32 1007.5
20260507194339 20 57 1.6 9.7 0.00 0.00 0.00 32 1007.7
20260507193849 20 313 4.8 9.7 0.00 0.00 0.00 31 1007.7
20260507193402 20 219 3.2 9.7 0.00 0.00 0.00 31 1007.7
20260507193059 20 360 1.6 9.7 0.00 0.00 0.00 31 1007.6
20260507192853 20 355 4.8 9.7 0.00 0.00 0.00 30 1007.8
20260507192346 19 211 3.2 12.9 0.00 0.00 0.00 31 1007.8
20260507191838 20 267 6.4 12.9 0.00 0.00 0.00 31 1007.9
20260507191537 20 302 1.6 9.7 0.00 0.00 0.00 32 1007.5
20260507191336 20 161 4.8 16.1 0.00 0.00 0.00 31 1007.9
20260507190851 21 311 4.8 16.1 0.00 0.00 0.00 31 1007.8
20260507190405 21 57 1.6 11.3 0.00 0.00 0.00 33 1007.9
20260507190054 20 324 1.6 11.3 0.00 0.00 0.00 31 1007.8
20260507185853 20 40 6.4 11.3 0.00 0.00 0.00 31 1008.0
20260507185346 21 53 3.2 9.7 0.00 0.00 0.00 31 1008.1
20260507184859 21 5 6.4 11.3 0.00 0.00 0.00 32 1008.1
20260507184550 20 26 3.2 11.3 0.00 0.00 0.00 33 1008.0
20260507184349 20 157 4.8 11.3 0.00 0.00 0.00 32 1008.2
20260507183841 20 58 4.8 8.0 0.00 0.00 0.00 32 1008.2
20260507183354 20 360 4.8 8.0 0.00 0.00 0.00 31 1008.2
20260507183020 20 86 1.6 9.7 0.00 0.00 0.00 33 1007.9
20260507182906 20 360 3.2 9.7 0.00 0.00 0.00 34 1008.3
20260507182358 18 331 6.4 11.3 0.00 0.00 0.00 33 1008.3
20260507181850 19 355 6.4 11.3 0.00 0.00 0.00 33 1008.3
20260507181543 20 291 3.2 9.7 0.00 0.00 0.00 34 1008.1
20260507181342 20 309 6.4 9.7 0.00 0.00 0.00 32 1008.3
20260507180855 21 70 4.8 16.1 0.00 0.00 0.00 34 1008.2
20260507180350 20 53 6.4 16.1 0.00 0.00 0.00 36 1008.3
20260507180044 19 22 4.8 11.3 0.00 0.00 0.00 33 1008.2
20260507175840 20 355 3.2 11.3 0.00 0.00 0.00 33 1008.4
20260507175415 19 142 526.3 526.3 0.00 0.00 0.00 37 1008.3
20260507174910 19 175 4.8 8.0 0.00 0.00 0.00 35 1008.7
20260507174519 20 203 3.2 6.4 0.00 0.00 0.00 37 1008.5
20260507173014 18 241 3.2 9.7 0.00 0.00 0.00 41 1008.8
20260507171615 17 184 4.8 9.7 0.00 0.00 0.00 43 1009.1
20260507170010 16 348 1.6 8.0 0.00 0.00 0.00 42 1009.4
20260507164505 16 320 4.8 8.0 0.00 0.00 0.00 42 1009.8
20260507163003 17 52 4.8 9.7 0.00 0.00 0.00 44 1010.0
20260507161613 16 57 3.2 11.3 0.00 0.00 0.00 45 1010.2
20260507160100 16 331 3.2 8.0 0.00 0.00 0.00 45 1010.4
20260507154556 15 16 3.2 11.3 0.00 0.03 0.00 45 1010.7
20260507153054 15 56 3.2 9.7 0.00 0.03 0.00 47 1010.7
20260507151550 14 15 3.2 11.3 0.00 0.03 0.00 49 1010.9
20260507150049 13 315 0.0 8.0 0.00 0.03 0.00 52 1011.4
20260507144545 12 315 1.6 4.8 0.00 0.03 0.00 53 1011.8
20260507143046 12 61 1.6 12.9 0.00 0.03 0.00 52 1012.0
20260507141548 12 57 3.2 9.7 0.00 0.03 0.00 54 1012.0
20260507140040 12 82 3.2 8.0 0.00 0.03 0.00 56 1012.2
20260507134547 11 75 3.2 6.4 0.00 0.03 0.00 56 1012.3
20260507133038 11 80 4.8 9.7 0.00 0.03 0.00 56 1012.4
20260507131539 11 355 0.0 4.8 0.00 0.03 0.00 56 1012.8
20260507130036 11 54 0.0 3.2 0.00 0.03 0.00 58 1012.9
20260507124535 10 98 0.0 1.6 0.00 0.03 0.00 60 1012.9
20260507123036 10 98 0.0 3.2 0.00 0.03 0.00 63 1012.9
20260507121531 10 98 0.0 3.2 0.00 0.03 0.00 63 1012.7
20260507120029 10 65 0.0 1.6 0.00 0.03 0.00 69 1012.6
20260507114532 10 65 0.0 0.0 0.00 0.03 0.00 72 1012.6
20260507113026 10 65 0.0 0.0 0.00 0.03 0.00 73 1012.5
20260507111525 10 65 0.0 0.0 0.00 0.03 0.00 74 1012.4
20260507110024 10 65 0.0 0.0 0.00 0.03 0.00 72 1012.2
20260507104524 10 65 0.0 1.6 0.00 0.03 0.00 74 1012.2
20260507103024 10 65 0.0 3.2 0.00 0.03 0.00 71 1012.0
20260507101521 10 318 1.6 6.4 0.00 0.03 0.00 74 1011.4
20260507100017 10 340 0.0 1.6 0.00 0.03 0.00 76 1011.5
20260507094516 10 340 0.0 0.0 0.00 0.03 0.00 83 1011.4